Weather History for Moron de la Frontera, Spain

Change the Weather History Date:

Tuesday, November 13, 2012

  Actual Average Record
Temperature  
Mean Temperature 56 °F -  
Max Temperature 66 °F 63 °F 78 °F (2011)
Min Temperature 46 °F 45 °F 37 °F (2001)
Degree Days  
Heating Degree Days 9    
Growing Degree Days 6 (Base 50)    
Moisture  
Dew Point 48 °F    
Average Humidity 79    
Maximum Humidity 100    
Minimum Humidity 49    
Precipitation  
Precipitation 0.00 in - - ()
Sea Level Pressure  
Sea Level Pressure 30.06 in    
Wind  
Wind Speed 4 mph ()    
Max Wind Speed 12 mph    
Max Gust Speed -    
Averages and records for this station are not official NWS values.
T = Trace of Precipitation, MM = Missing Value Source: Averaged Metar Reports

Daily Weather History Graph

Daily Weather History Graph

Search for Another Location

Airport:

Trip Planner

Search our weather history database for the weather conditions in past years. The results will help you decide how hot, cold, wet, or windy it might be!

Date:

Astronomy

Nov. 13, 2012 Rise Set
Actual Time 7:59 AM CET 6:13 PM CET
Civil Twilight 7:31 AM CET 6:41 PM CET
Nautical Twilight 7:00 AM CET 7:12 PM CET
Astronomical Twilight 6:29 AM CET 7:43 PM CET
Moon 7:20 AM CET (11/13) 5:55 PM CET (11/13)
Length of Visible Light 11h 09m
Length of Day
10h 14m
Waning Crescent, 0% of the Moon is Illuminated
Nov 13
Waning Crescent
Nov 13
New
Nov 20
First Quarter
Nov 28
Full
Dec 6
Last Quarter

Hourly Weather History & Observations

Time (CET) Temp. Windchill Dew Point Humidity Pressure Visibility Wind Dir Wind Speed Gust Speed Precip Events Conditions
12:00 AM 51.8 °F - 48.2 °F 88% 30.12 in - East 1.2 mph - N/A   Clear
1:00 AM 48.2 °F - 46.4 °F 93% 30.12 in - North 1.2 mph - N/A   Clear
2:00 AM 50.0 °F - 48.2 °F 94% 30.12 in - North 2.3 mph - N/A   Clear
3:00 AM 48.2 °F - 46.4 °F 93% 30.12 in - South 2.3 mph - N/A   Clear
4:00 AM 48.2 °F - 46.4 °F 93% 30.09 in - East 1.2 mph - N/A   Clear
5:00 AM 48.2 °F - 46.4 °F 93% 30.09 in - East 8.1 mph - N/A   Clear
6:00 AM 48.2 °F - 46.4 °F 93% 30.09 in - East 3.5 mph - N/A   Clear
7:00 AM 46.4 °F 44.3 °F 46.4 °F 100% 30.09 in - North 4.6 mph - N/A   Clear
8:00 AM 48.2 °F - 46.4 °F 93% 30.09 in - NNE 6.9 mph - N/A   Clear
9:00 AM 50.0 °F - 48.2 °F 94% 30.09 in - NE 4.6 mph - N/A   Clear
10:00 AM 55.4 °F - 48.2 °F 77% 30.09 in - NE 6.9 mph - N/A   Clear
11:00 AM 57.2 °F - 46.4 °F 67% 30.09 in - NE 8.1 mph - N/A   Clear
12:00 PM 60.8 °F - 48.2 °F 63% 30.09 in - ENE 9.2 mph - N/A   Clear
1:00 PM 60.8 °F - 48.2 °F 63% 30.06 in - NE 9.2 mph - N/A   Clear
2:00 PM 64.4 °F - 48.2 °F 56% 30.04 in - ENE 9.2 mph - N/A   Clear
3:00 PM 66.2 °F - 48.2 °F 52% 30.01 in - NE 11.5 mph - N/A   Clear
4:00 PM 66.2 °F - 46.4 °F 49% 30.01 in - ENE 6.9 mph - N/A   Clear
5:00 PM 66.2 °F - 48.2 °F 52% 30.01 in - NE 5.8 mph - N/A   Clear
6:00 PM 62.6 °F - 50.0 °F 63% 29.98 in - Variable 1.2 mph - N/A   Clear
7:00 PM 57.2 °F - 48.2 °F 72% 29.98 in - Variable 2.3 mph - N/A   Clear
8:00 PM 57.2 °F - 48.2 °F 72% 30.01 in - Variable 1.2 mph - N/A   Clear
9:00 PM 51.8 °F - 48.2 °F 88% 30.01 in - Calm Calm - N/A   Clear
10:00 PM 50.0 °F - 48.2 °F 94% 30.01 in - Calm Calm - N/A   Clear
11:00 PM 50.0 °F - 48.2 °F 94% 30.01 in - Calm Calm - N/A   Clear